Flag for Austria Weather past 2 weeks in Bruck an der Leitha, Lower Austria, Austria

Now
60 °F

Scattered clouds.


Feels Like: 60 °F
Forecast: 57 / 75 °F
Wind: N/A

Location: Wien / Schwechat-Flughafen

Current Time: May 30, 2015 at 9:27:15 AM

Latest Report: May 30, 2015 at 8:00 AM


Visibility: 13 mi

Pressure: 29.93 "Hg

Humidity: 79%

Dew point: 54 °F

Location of Bruck an der LeithaLocation

Historic Weather in Bruck an der Leitha — Graph

°F

Bruck an der Leitha temperature yesterday

Maximum temperature yesterday: 72 °F (at 5:00 PM)
Minimum temperature yesterday: 44 °F (at 5:00 AM)
Average temperature yesterday: 60 °F

Past Weeks' High & Low Weather Summary

 TemperatureHumidityPressure
High75 °F (May 19, 1:00 PM)98% (May 24, 12:00 AM)30.24 "Hg (May 24, 12:00 AM)
Low44 °F (May 29, 5:00 AM)34% (May 16, 3:00 PM)29.73 "Hg (May 19, 6:00 AM)
Average58 °F73%29.99 "Hg
* Reported May 15 8:00 AM — May 30 8:00 AM, Bruck an der Leitha, Weather by CustomWeather, © 2015

Note: Actual official high and low records may vary slightly from our data, if they occured in-between our weather recording intervals... More about our weather records

Advertising

Bruck an der Leitha weather history for previous 24 hours

 ConditionsComfort  
Time TempWeatherWind HumidityBarometerVisibility
8:00 AM
Sat, May 30
60 °FScattered clouds.N/A79%29.93 "Hg12 mi
7:00 AM58 °FScattered clouds.5 mph84%29.93 "Hg9 mi
6:00 AM55 °FPartly sunny.N/A90%29.91 "Hg6 mi
5:00 AM54 °FPartly sunny.N/A91%29.91 "Hg7 mi
4:00 AM56 °FPassing clouds.N/A86%29.88 "Hg9 mi
3:00 AM56 °FPassing clouds.N/A84%29.87 "Hg16 mi
2:00 AM58 °FPassing clouds.5 mph77%29.85 "Hg19 mi
1:00 AM60 °FPassing clouds.6 mph72%29.84 "Hg22 mi
12:00 AM61 °FPassing clouds.3 mph70%29.86 "Hg25 mi
10:00 PM
Fri, May 29
63 °FPassing clouds.6 mph70%29.87 "Hg25 mi
9:00 PM65 °FPassing clouds.6 mph61%29.86 "Hg25 mi
8:00 PM67 °FOvercast.6 mph56%29.86 "Hg25 mi
7:00 PM69 °FOvercast.5 mph52%29.87 "Hg19 mi
6:00 PM72 °FPartly sunny.8 mph47%29.88 "Hg15 mi
5:00 PM72 °FPartly sunny.7 mph44%29.89 "Hg16 mi
4:00 PM72 °FScattered clouds.7 mph43%29.90 "Hg18 mi
3:00 PM72 °FScattered clouds.6 mph44%29.92 "Hg16 mi
2:00 PM71 °FScattered clouds.5 mph45%29.93 "Hg11 mi
1:00 PM70 °FScattered clouds.3 mph48%29.95 "Hg19 mi
12:00 PM68 °FScattered clouds.N/A58%29.97 "Hg12 mi
11:00 AM64 °FScattered clouds.N/A59%29.99 "Hg15 mi
10:00 AM61 °FScattered clouds.N/A68%30.00 "Hg15 mi
9:00 AM56 °FScattered clouds.N/A77%30.01 "Hg9 mi
Weather by CustomWeather, © 2015

See weather overviewHow to use our weather pages